This demonstration page uses our WeatherBlox Daily Observations layout. Learn more.

39.29038, -76.61219

Hourly Observations for February 2, 2020

Temp ( °F °C ) Dew Point ( °F °C ) Humidity (%) Winds ( mph kmh ) Pressure ( in mb ) Visibility ( mi km ) Precip ( " mm )
12:54 am 00:54 undefined 42 5.6 37 2.8 82 82 undefined N/A 29.72 1006 N/A 0 0
1:54 am 01:54 undefined 40 4.4 36 2.2 86 86 undefined N/A 29.7 1006 N/A 0 0
2:54 am 02:54 undefined 39 3.9 35 1.7 86 86 undefined N/A 29.69 1006 N/A 0 0
3:54 am 03:54 undefined 38 3.3 34 1.1 86 86 undefined N/A 29.68 1005 N/A 0 0
4:54 am 04:54 undefined 37 2.8 33 0.6 86 86 undefined N/A 29.69 1005 N/A 0 0
5:54 am 05:54 undefined 38 3.3 32 0 79 79 undefined N/A 29.7 1006 N/A 0 0
6:54 am 06:54 undefined 38 3.3 33 0.6 83 83 undefined N/A 29.71 1006 N/A 0 0
7:54 am 07:54 undefined 40 4.4 33 0.6 77 77 undefined N/A 29.71 1006 N/A 0 0
8:54 am 08:54 undefined 43 6.1 32 0 65 65 undefined N/A 29.72 1007 N/A 0 0
9:54 am 09:54 undefined 43 6.1 25 -3.9 49 49 undefined N/A 29.72 1007 N/A 0 0
10:54 am 10:54 undefined 44 6.7 27 -2.8 51 51 undefined N/A 29.71 1006 N/A 0 0
11:54 am 11:54 undefined 41 5 31 -0.6 67 67 undefined N/A 29.65 1004 N/A 0 0
12:54 pm 12:54 undefined 42 5.6 31 -0.6 65 65 undefined N/A 29.61 1003 N/A 0 0
1:54 pm 13:54 undefined 45 7.2 32 0 61 61 undefined N/A 29.56 1001 N/A 0 0
2:54 pm 14:54 undefined 48 8.9 32 0 54 54 undefined N/A 29.51 999 N/A 0 0
3:54 pm 15:54 undefined 50 10 31 -0.6 48 48 undefined N/A 29.48 998 N/A 0 0
4:54 pm 16:54 undefined 45 7.2 35 1.7 68 68 undefined N/A 29.48 998 N/A 0 0
5:54 pm 17:54 undefined 44 6.7 34 1.1 68 68 undefined N/A 29.49 999 N/A 0 0
6:54 pm 18:54 undefined 44 6.7 35 1.7 71 71 undefined N/A 29.51 999 N/A 0 0
7:54 pm 19:54 undefined 44 6.7 35 1.7 71 71 undefined N/A 29.52 1000 N/A 0 0
8:54 pm 20:54 undefined 43 6.1 35 1.7 74 74 undefined N/A 29.53 1000 N/A 0 0
9:54 pm 21:54 undefined 43 6.1 35 1.7 74 74 undefined N/A 29.54 1000 N/A 0 0
10:54 pm 22:54 undefined 42 5.6 34 1.1 73 73 undefined N/A 29.56 1001 N/A 0 0
11:54 pm 23:54 undefined 41 5 35 1.7 79 79 undefined N/A 29.59 1002 N/A 0 0

Powered by AerisWeather